Wind_Speed
15 17 16 14 13 12 12 12 13 15 18 12 11 9 9 10 8 10 10 9 10 11 11 12 14 14 14 13 12 12 12 12 13 13 11 10 9 10
16 17 18 17 16 15 15 15 16 17 21 17 15 15 14 13 13 15 15 14 15 15 16 16 17 17 17 17 16 15 13 12 13 11 8 7 8 9
19 19 19 18 19 20 20 21 22 22 25 24 21 18 18 17 18 18 18 19 20 20 20 20 21 21 21 21 19 17 16 15 14 13 11 10 10 12
18 20 21 20 21 21 22 24 25 26 28 30 27 25 24 23 23 23 22 23 25 24 24 24 24 24 24 24 23 21 21 20 19 17 17 15 14 13
21 21 20 21 24 25 25 26 26 27 29 33 35 33 33 30 30 32 30 30 30 29 29 29 29 28 27 28 28 26 25 24 24 23 22 20 18 17
25 25 24 24 24 24 27 29 30 31 32 34 37 39 39 37 37 39 40 38 38 35 35 35 33 33 32 30 30 31 30 28 26 28 26 23 22 21
27 26 26 25 24 24 25 26 28 30 32 36 40 43 43 43 42 42 45 43 45 43 42 42 39 39 38 36 34 30 32 32 33 32 31 26 25 24
33 32 31 30 30 29 30 31 32 34 34 36 41 43 44 44 43 43 44 44 50 41 39 45 41 45 45 40 38 36 30 30 33 34 32 27 26 26
38 37 36 35 34 34 35 36 37 38 39 40 44 47 47 46 45 47 46 47 49 47 44 48 44 46 45 44 40 42 38 34 34 34 32 30 25 26
42 42 42 42 41 40 39 40 40 39 38 37 41 45 44 42 41 42 42 44 48 46 47 52 50 53 49 48 45 43 44 40 38 35 35 34 28 25
41 41 41 41 39 37 38 38 38 39 37 34 34 33 32 32 30 35 44 46 52 50 49 52 54 55 55 56 51 47 44 45 44 43 37 37 31 24
35 36 36 35 33 31 32 32 34 30 27 28 28 28 27 27 26 29 33 40 46 51 47 44 50 49 46 55 54 53 47 47 51 51 43 42 35 29
30 29 29 25 21 20 21 25 28 25 25 28 29 32 34 34 34 31 34 38 42 48 47 46 51 51 56 55 47 42 41 48 53 56 47 47 41 33
27 25 22 19 21 21 22 23 23 21 23 27 32 33 37 38 41 40 40 42 44 48 47 48 55 49 58 56 49 52 55 51 51 61 57 53 41 34
21 20 20 22 22 21 21 22 23 27 28 34 33 31 33 32 32 30 33 38 43 45 45 44 49 55 58 64 59 56 53 56 54 60 65 63 48 45
19 21 21 21 22 23 26 30 29 25 24 26 28 30 31 31 34 34 36 37 40 44 36 35 40 45 52 60 62 61 58 52 48 63 74 65 50 47
21 22 24 25 25 23 23 23 22 25 27 28 27 27 28 30 29 29 35 34 33 40 46 45 45 43 47 53 60 59 60 62 56 58 68 57 48 50
18 19 19 19 18 19 20 24 25 26 25 23 23 22 22 26 28 27 27 31 37 40 39 37 41 47 45 38 46 59 56 53 48 60 68 61 51 47
17 17 16 17 18 21 21 19 17 15 13 14 19 20 20 20 22 26 29 29 32 32 33 35 38 36 37 39 33 30 32 28 35 37 44 46 49 41
13 12 13 15 13 12 11 11 12 14 15 16 16 17 18 20 23 25 25 29 29 30 35 35 31 29 32 23 9 1 5 24 35 44 40 35 31 29
9 10 10 10 10 11 11 13 13 13 13 15 15 15 17 19 19 20 20 20 19 22 25 27 25 18 14 3 10 11 11 20 27 31 36 35 28 30
8 8 9 9 11 11 11 12 12 11 13 14 14 15 15 17 16 15 13 15 15 19 16 16 15 9 13 17 22 22 26 26 24 24 20 15 22 26
6 6 6 8 9 9 10 10 12 12 12 13 13 13 15 15 14 14 12 11 12 12 11 8 7 12 10 15 19 24 26 26 25 21 17 11 18 17
Wind_Direction
248 246 253 253 258 262 262 268 287 290 305 313 314 321 292 280 278 271 273 273 274 277 278 276 272 271 270 269 272 279 295 304 307 305 305 306 307 303
251 254 258 256 254 257 260 267 275 282 285 293 296 297 298 294 287 279 275 270 270 272 272 270 271 269 267 265 269 271 282 294 302 300 308 321 325 321
252 255 259 262 258 255 260 263 268 275 281 287 289 292 291 296 293 288 277 273 270 268 270 273 269 268 265 263 262 264 273 277 284 284 287 300 313 314
254 258 259 260 260 261 263 264 267 270 274 282 287 289 289 290 289 288 285 279 275 272 269 270 271 268 266 264 258 255 264 271 275 279 276 282 291 287
257 259 263 264 262 261 262 266 268 271 274 278 283 285 286 286 286 286 285 282 278 276 271 267 267 268 265 262 258 256 257 259 265 268 274 274 278 283
255 259 259 261 264 267 267 267 268 270 272 275 278 281 283 284 282 281 281 281 282 281 280 275 270 265 264 264 262 258 258 252 258 264 265 270 275 281
252 255 257 258 262 265 268 268 270 271 273 276 277 280 281 283 283 287 287 290 288 285 281 277 274 269 264 261 261 260 257 259 264 261 260 265 273 275
254 257 259 261 261 264 266 270 275 278 279 279 281 281 283 285 287 286 288 288 289 291 287 286 282 276 273 267 261 260 259 259 261 257 254 257 270 274
257 259 261 261 262 265 269 273 273 274 276 280 281 280 284 286 289 288 289 289 289 294 292 289 287 282 280 275 269 261 250 252 254 255 255 248 256 266
259 260 262 266 268 270 273 274 273 274 272 273 274 279 282 289 290 291 291 288 288 288 288 282 287 284 283 279 273 261 249 253 243 243 243 240 248 252
260 262 263 265 266 270 273 273 273 274 281 281 282 283 286 289 288 287 283 283 283 289 286 284 287 284 281 279 274 264 252 247 239 237 230 237 240 235
259 262 265 267 271 270 270 275 277 284 288 287 283 281 283 283 282 279 282 280 282 282 292 278 286 277 269 279 276 270 259 245 235 234 227 227 231 217
261 264 270 276 278 276 274 273 277 285 283 286 288 292 295 293 293 293 289 292 293 290 297 286 284 275 268 271 272 267 264 250 238 230 227 222 225 211
265 271 273 273 273 270 271 274 278 283 284 283 285 288 294 296 301 305 305 302 300 297 301 297 283 285 277 268 263 262 263 256 243 230 217 214 220 210
260 267 270 271 274 277 276 279 281 283 280 277 287 285 288 291 294 294 296 298 297 298 299 299 290 286 276 274 271 263 249 250 244 229 214 211 209 204
260 262 262 266 267 269 276 281 284 281 281 282 282 285 289 296 298 301 302 304 304 304 307 311 306 296 282 271 271 261 252 234 245 226 210 208 204 204
255 257 260 264 267 269 271 274 274 277 277 280 285 288 295 300 303 306 305 308 312 318 319 322 319 305 288 278 270 258 255 248 234 222 204 199 198 202
244 251 255 259 263 268 272 273 275 278 280 283 291 296 299 303 308 312 317 321 321 325 332 335 329 322 318 298 281 263 251 246 220 213 208 195 192 197
240 245 254 260 265 267 269 271 273 276 283 289 293 296 302 307 313 318 322 325 326 329 332 336 339 340 332 307 290 276 255 238 210 183 180 184 184 179
233 240 255 258 261 261 261 264 273 282 287 292 298 303 303 309 315 321 329 328 327 328 338 350 354 352 343 335 316 116 230 217 188 182 174 174 168 175
234 241 244 249 253 257 263 271 279 286 293 298 303 306 304 309 313 321 328 333 325 340 356 4 4 355 344 13 85 111 143 179 168 155 166 165 164 174
237 246 253 258 265 269 272 275 277 282 290 299 302 308 312 313 309 314 324 333 331 342 343 352 12 12 74 95 100 100 108 113 117 126 129 148 162 182
242 232 247 268 275 274 280 281 283 291 294 294 298 306 307 305 297 295 302 312 317 332 336 5 38 66 91 88 96 104 108 111 112 117 124 146 200 212
Height
1601 1603 1605 1606 1607 1608 1609 1609 1610 1609 1607 1606 1606 1607 1606 1606 1606 1605 1605 1605 1603 1603 1602 1601 1600 1600 1600 1599 1598 1597 1597 1597 1596 1594 1594 1593 1593 1591
1598 1599 1601 1604 1605 1606 1606 1607 1607 1606 1604 1604 1604 1604 1604 1604 1603 1602 1602 1602 1601 1599 1598 1597 1596 1596 1596 1595 1596 1595 1595 1594 1594 1593 1591 1589 1589 1588
1595 1596 1598 1600 1601 1602 1603 1603 1603 1603 1601 1599 1600 1601 1600 1600 1600 1599 1598 1597 1596 1595 1594 1594 1592 1591 1591 1591 1592 1592 1592 1592 1590 1589 1588 1586 1585 1585
1592 1592 1594 1596 1597 1598 1598 1599 1599 1600 1598 1595 1596 1596 1596 1596 1595 1594 1594 1593 1591 1590 1589 1588 1587 1587 1587 1587 1586 1587 1588 1588 1588 1587 1586 1584 1582 1581
1588 1589 1590 1591 1592 1593 1595 1595 1595 1595 1594 1591 1589 1589 1589 1589 1588 1587 1586 1585 1583 1582 1582 1582 1582 1582 1581 1580 1580 1581 1580 1580 1579 1579 1580 1580 1579 1577
1583 1584 1585 1585 1586 1588 1588 1588 1588 1588 1588 1586 1584 1582 1582 1582 1581 1578 1576 1576 1575 1577 1575 1573 1573 1572 1571 1572 1573 1575 1574 1572 1573 1574 1574 1573 1573 1573
1576 1578 1579 1580 1581 1582 1583 1582 1582 1582 1582 1580 1577 1575 1573 1572 1572 1571 1568 1568 1565 1566 1565 1563 1564 1562 1562 1564 1564 1565 1567 1570 1569 1567 1568 1567 1567 1567
1569 1570 1572 1573 1574 1575 1575 1575 1575 1574 1575 1574 1569 1567 1565 1564 1564 1562 1560 1559 1552 1556 1552 1549 1552 1550 1551 1554 1554 1555 1556 1553 1558 1558 1558 1560 1561 1561
1560 1562 1564 1565 1567 1567 1568 1568 1567 1567 1568 1566 1561 1557 1555 1556 1556 1551 1551 1548 1543 1544 1544 1538 1539 1536 1537 1538 1541 1542 1541 1542 1545 1550 1551 1551 1550 1552
1551 1553 1554 1555 1556 1558 1559 1557 1555 1556 1557 1557 1553 1548 1546 1546 1545 1543 1541 1538 1533 1534 1533 1525 1526 1519 1522 1522 1523 1524 1527 1527 1530 1533 1536 1539 1540 1540
1541 1542 1544 1545 1547 1549 1548 1547 1545 1544 1546 1545 1543 1541 1540 1539 1539 1536 1530 1528 1521 1521 1521 1515 1509 1506 1504 1501 1501 1504 1508 1512 1514 1517 1518 1527 1528 1530
1532 1532 1534 1536 1538 1540 1539 1538 1535 1536 1538 1536 1534 1533 1532 1531 1531 1529 1526 1520 1515 1507 1509 1505 1498 1499 1491 1484 1484 1487 1493 1497 1498 1499 1502 1508 1515 1517
1523 1525 1526 1528 1530 1531 1531 1531 1529 1530 1528 1527 1524 1522 1522 1520 1519 1519 1517 1513 1508 1499 1500 1496 1488 1484 1476 1472 1473 1472 1473 1477 1482 1486 1492 1493 1498 1500
1516 1518 1520 1522 1523 1523 1523 1522 1522 1522 1521 1519 1517 1514 1513 1511 1508 1504 1500 1497 1494 1489 1489 1488 1476 1475 1468 1458 1456 1456 1453 1457 1462 1469 1467 1473 1487 1492
1510 1512 1513 1513 1514 1514 1515 1516 1515 1515 1513 1509 1509 1507 1506 1503 1500 1497 1494 1490 1485 1478 1475 1475 1470 1464 1456 1445 1442 1440 1435 1436 1440 1446 1454 1458 1467 1475
1504 1505 1506 1507 1508 1508 1508 1508 1506 1507 1505 1503 1501 1499 1497 1495 1492 1490 1483 1479 1472 1467 1466 1462 1455 1450 1440 1435 1430 1422 1416 1416 1420 1428 1430 1436 1449 1459
1497 1498 1499 1499 1500 1500 1501 1501 1500 1500 1498 1496 1494 1492 1490 1488 1485 1482 1477 1471 1465 1458 1451 1449 1442 1433 1425 1418 1410 1404 1404 1403 1402 1404 1403 1423 1431 1447
1490 1491 1492 1493 1494 1494 1495 1495 1493 1492 1490 1489 1488 1486 1483 1481 1478 1474 1470 1465 1459 1452 1446 1438 1428 1414 1404 1400 1397 1388 1386 1384 1389 1392 1389 1407 1424 1444
1484 1486 1486 1487 1487 1488 1488 1487 1487 1486 1485 1484 1483 1480 1478 1476 1473 1469 1465 1460 1455 1449 1444 1435 1423 1413 1399 1392 1386 1383 1383 1383 1388 1399 1399 1404 1422 1438
1479 1480 1481 1482 1482 1483 1483 1482 1482 1482 1480 1478 1476 1474 1472 1470 1468 1464 1460 1455 1450 1446 1438 1431 1422 1412 1404 1396 1386 1383 1382 1384 1390 1398 1406 1422 1436 1446
1475 1476 1476 1477 1478 1478 1478 1478 1477 1476 1474 1472 1470 1468 1467 1465 1462 1459 1456 1452 1450 1444 1440 1433 1425 1417 1409 1405 1398 1395 1394 1397 1400 1408 1418 1429 1441 1452
1471 1472 1472 1473 1474 1474 1474 1473 1472 1471 1469 1467 1465 1463 1461 1460 1457 1456 1453 1450 1448 1443 1442 1438 1431 1427 1420 1415 1410 1407 1407 1412 1418 1423 1432 1440 1447 1454
1468 1469 1470 1470 1470 1470 1469 1469 1468 1466 1464 1462 1460 1459 1457 1455 1453 1452 1450 1447 1444 1443 1443 1441 1438 1433 1430 1426 1424 1421 1421 1422 1426 1433 1437 1444 1453 1458